Reading, PA

8:34 AM EST on November 17, 2019 (GMT -0500)
Reading Regional-Spaatz

Weather History for KRDG - July, 2019

Change the Weather History Date:

Wednesday, July 31, 2019

  Actual Average Record
Temperature  
Mean Temperature 79 °F 74 °F  
Max Temperature 87 °F 85 °F 102 °F (1954)
Min Temperature 70 °F 64 °F 53 °F (1981)
Degree Days  
Heating Degree Days 0 0  
Month to date heating degree days 0 0  
Since 1 June heating degree days 16 25  
Since 1 July heating degree days 0 1  
Cooling Degree Days 14 9  
Month to date cooling degree days 428 303  
Year to date cooling degree days 738 552  
Since 1 June cooling degree days 633 492  
Growing Degree Days 28 (Base 50)    
Moisture  
Dew Point 70 °F    
Average Humidity 79    
Maximum Humidity 100    
Minimum Humidity 58    
Precipitation  
Precipitation T in 0.13 in 2.56 in (1887)
Month to date precipitation 6.93 4.52  
Year to date precipitation 38.29 25.32  
Sea Level Pressure  
Sea Level Pressure 30.02 in    
Wind  
Wind Speed 3 mph (WNW)    
Max Wind Speed 15 mph    
Max Gust Speed 17 mph    
Visibility 10 miles    
Events Rain , Thunderstorm    
T = Trace of Precipitation, MM = Missing Value Source: NWS Daily Summary

Daily Weather History Graph

Daily Weather History Graph

Search for Another Location

Airport or City:

Astronomy

Jul. 31, 2019 Rise Set
Actual Time 6:00 AM EDT 8:19 PM EDT
Civil Twilight 5:29 AM EDT 8:50 PM EDT
Nautical Twilight 4:51 AM EDT 9:27 PM EDT
Astronomical Twilight 4:09 AM EDT 10:09 PM EDT
Moon 5:10 AM EDT (7/31) 8:17 PM EDT (7/31)
Length of Visible Light 15h 20m
Length of Day
14h 19m
Waning Crescent, 0% of the Moon is Illuminated
Jul 31
Waning Crescent
Jul 31
New
Aug 7
First Quarter
Aug 15
Full
Aug 23
Last Quarter

Hourly Weather History & Observations

Time (EDT) Temp. Heat Index Dew Point Humidity Pressure Visibility Wind Dir Wind Speed Gust Speed Precip Events Conditions
12:54 AM 72.0 °F - 71.1 °F 97% 30.02 in 10.0 mi Calm Calm - N/A   Clear
1:54 AM 72.0 °F - 70.0 °F 93% 30.01 in 10.0 mi Calm Calm - N/A   Clear
2:54 AM 72.0 °F - 70.0 °F 93% 30.00 in 10.0 mi Calm Calm - N/A   Clear
3:54 AM 71.1 °F - 70.0 °F 96% 30.01 in 10.0 mi NW 3.5 mph - N/A   Scattered Clouds
4:54 AM 71.1 °F - 69.1 °F 93% 30.01 in 10.0 mi Calm Calm - N/A   Partly Cloudy
5:54 AM 70.0 °F - 69.1 °F 97% 30.01 in 10.0 mi Calm Calm - N/A   Clear
6:54 AM 70.0 °F - 69.1 °F 97% 30.03 in 10.0 mi WNW 3.5 mph - N/A   Clear
7:54 AM 72.0 °F - 70.0 °F 93% 30.03 in 10.0 mi Calm Calm - N/A   Clear
8:54 AM 75.9 °F - 70.0 °F 82% 30.05 in 10.0 mi NNW 3.5 mph - N/A   Partly Cloudy
9:54 AM 78.1 °F - 70.0 °F 76% 30.05 in 10.0 mi North 6.9 mph - N/A   Clear
10:54 AM 82.0 °F 85.9 °F 70.0 °F 67% 30.05 in 10.0 mi NNE 5.8 mph - N/A   Clear
11:54 AM 84.9 °F 89.4 °F 70.0 °F 61% 30.04 in 10.0 mi Calm Calm - N/A   Scattered Clouds
12:54 PM 84.0 °F 88.4 °F 70.0 °F 63% 30.05 in 10.0 mi SW 5.8 mph - 0.00 in Rain Light Rain
1:29 PM 82.9 °F 87.0 °F 70.0 °F 65% 30.03 in 10.0 mi WSW 8.1 mph - 0.00 in Thunderstorm Partly Cloudy
1:54 PM 87.1 °F 92.8 °F 71.1 °F 59% 30.02 in 10.0 mi WSW 6.9 mph - 0.00 in   Partly Cloudy
2:46 PM 84.9 °F 90.1 °F 71.1 °F 63% 30.01 in 10.0 mi SW 5.8 mph - N/A Thunderstorm Partly Cloudy
2:54 PM 84.9 °F 90.7 °F 72.0 °F 65% 30.01 in 10.0 mi Calm Calm - N/A Thunderstorm Partly Cloudy
3:01 PM 84.9 °F 90.7 °F 72.0 °F 65% 30.00 in 10.0 mi South 5.8 mph - N/A   Scattered Clouds
3:43 PM 86.0 °F 92.2 °F 72.0 °F 63% 29.98 in 10.0 mi SW 10.4 mph - N/A Thunderstorm Partly Cloudy
3:54 PM 84.9 °F 90.7 °F 72.0 °F 65% 29.99 in 10.0 mi WSW 8.1 mph - N/A   Clear
4:09 PM 84.0 °F 89.0 °F 71.1 °F 65% 29.99 in 10.0 mi SW 6.9 mph - N/A Thunderstorm Clear
4:45 PM 81.0 °F 82.5 °F 64.0 °F 56% 29.99 in 10.0 mi NNE 5.8 mph - N/A   Partly Cloudy
4:54 PM 81.0 °F 82.5 °F 64.0 °F 56% 30.00 in 10.0 mi NNE 3.5 mph - N/A Thunderstorm Partly Cloudy
5:52 PM 84.2 °F 87.3 °F 68.0 °F 58% 29.98 in 10.0 mi West 4.6 mph - N/A   Partly Cloudy
5:54 PM 84.0 °F 87.8 °F 69.1 °F 61% 29.99 in 10.0 mi West 4.6 mph - N/A   Partly Cloudy
6:54 PM 82.9 °F 87.5 °F 71.1 °F 67% 30.00 in 10.0 mi NW 8.1 mph - N/A   Partly Cloudy
7:54 PM 81.0 °F 85.2 °F 72.0 °F 74% 30.02 in 10.0 mi NNE 3.5 mph - N/A   Scattered Clouds
8:54 PM 77.0 °F - 71.1 °F 82% 30.03 in 10.0 mi East 5.8 mph - N/A   Partly Cloudy
9:54 PM 75.0 °F - 70.0 °F 84% 30.04 in 10.0 mi SE 3.5 mph - N/A   Clear
10:54 PM 73.0 °F - 71.1 °F 93% 30.04 in 10.0 mi North 4.6 mph - N/A   Clear
11:54 PM 72.0 °F - 71.1 °F 97% 30.04 in 10.0 mi Calm Calm - N/A   Clear